Pratt, KS

3:56 AM CDT on August 24, 2016 (GMT -0500)
Pratt Industrial

Weather History for KPTT - June, 2013

Change the Weather History Date:

Friday, June 21, 2013

  Actual Average (KP28) Record (KP28)
Temperature  
Mean Temperature 83 °F 78 °F  
Max Temperature 95 °F 90 °F 108 °F (1953)
Min Temperature 71 °F 66 °F 47 °F (1902)
Degree Days  
Heating Degree Days 0 0  
Month to date heating degree days 0  
Since 1 June heating degree days 0  
Since 1 July heating degree days 4455  
Cooling Degree Days 18 13  
Month to date cooling degree days 222  
Year to date cooling degree days 378  
Since 1 June cooling degree days 222  
Growing Degree Days 33 (Base 50)    
Moisture  
Dew Point 62 °F    
Average Humidity 52    
Maximum Humidity 78    
Minimum Humidity 26    
Precipitation  
Precipitation 0.00 in 0.13 in 2.17 in (1894)
Month to date precipitation 3.08  
Year to date precipitation 12.82  
Snow  
Snow 0.00 in 0.00 in - ()
Month to date snowfall 0.0  
Since 1 June snowfall 0.0  
Since 1 July snowfall 8.5  
Snow Depth -    
Sea Level Pressure  
Sea Level Pressure 29.90 in    
Wind  
Wind Speed 19 mph (South)    
Max Wind Speed 31 mph    
Max Gust Speed 40 mph    
Visibility 10 miles    
Events      
T = Trace of Precipitation, MM = Missing Value Source: NWS Daily Summary

Daily Weather History Graph

Daily Weather History Graph

Search for Another Location

Airport or City:

Trip Planner

Search our weather history database for the weather conditions in past years. The results will help you decide how hot, cold, wet, or windy it might be!

Date:

Astronomy

Jun. 21, 2013 Rise Set
Actual Time 6:13 AM CDT 9:00 PM CDT
Civil Twilight 5:42 AM CDT 9:31 PM CDT
Nautical Twilight 5:03 AM CDT 10:10 PM CDT
Astronomical Twilight 4:18 AM CDT 10:55 PM CDT
Moon 7:13 PM CDT (6/21) 4:28 AM CDT (6/21)
Length of Visible Light 15h 49m
Length of Day
14h 46m
Waxing Gibbous, 95% of the Moon is Illuminated
Jun 21
Waxing Gibbous
Jun 23
Full
Jun 29
Last Quarter
Jul 8
New
Jul 15
First Quarter

Hourly Weather History & Observations

Time (CDT) Temp. Heat Index Dew Point Humidity Pressure Visibility Wind Dir Wind Speed Gust Speed Precip Events Conditions
12:15 AM 80.6 °F 82.3 °F 64.4 °F 58% 29.90 in 10.0 mi South 19.6 mph 29.9 mph N/A   Clear
12:35 AM 78.8 °F - 64.4 °F 61% 29.90 in 10.0 mi South 17.3 mph 26.5 mph N/A   Clear
12:55 AM 78.8 °F - 64.4 °F 61% 29.90 in 10.0 mi South 19.6 mph 26.5 mph N/A   Clear
1:15 AM 77.0 °F - 64.4 °F 65% 29.89 in 10.0 mi South 19.6 mph 26.5 mph N/A   Clear
1:35 AM 77.0 °F - 64.4 °F 65% 29.88 in 10.0 mi South 17.3 mph 25.3 mph N/A   Clear
1:55 AM 77.0 °F - 64.4 °F 65% 29.89 in 10.0 mi South 19.6 mph 26.5 mph N/A   Clear
2:15 AM 77.0 °F - 64.4 °F 65% 29.88 in 10.0 mi South 19.6 mph 26.5 mph N/A   Clear
2:35 AM 77.0 °F - 64.4 °F 65% 29.88 in 10.0 mi South 19.6 mph 26.5 mph N/A   Clear
2:55 AM 77.0 °F - 64.4 °F 65% 29.89 in 10.0 mi South 17.3 mph 24.2 mph N/A   Clear
3:15 AM 75.2 °F - 64.4 °F 69% 29.89 in 10.0 mi South 16.1 mph 23.0 mph N/A   Clear
3:35 AM 75.2 °F - 64.4 °F 69% 29.88 in 10.0 mi South 15.0 mph 21.9 mph N/A   Clear
3:55 AM 75.2 °F - 64.4 °F 69% 29.90 in 10.0 mi South 10.4 mph - N/A   Clear
4:15 AM 73.4 °F - 64.4 °F 73% 29.90 in 10.0 mi South 9.2 mph - N/A   Clear
4:35 AM 73.4 °F - 64.4 °F 73% 29.90 in 10.0 mi South 9.2 mph 16.1 mph N/A   Clear
4:55 AM 71.6 °F - 64.4 °F 78% 29.91 in 10.0 mi South 8.1 mph - N/A   Clear
5:15 AM 73.4 °F - 64.4 °F 73% 29.91 in 10.0 mi SSE 6.9 mph - N/A   Clear
5:35 AM 71.6 °F - 64.4 °F 78% 29.91 in 10.0 mi SE 3.5 mph - N/A   Clear
5:55 AM 71.6 °F - 64.4 °F 78% 29.91 in 10.0 mi SSE 10.4 mph - N/A   Clear
6:15 AM 71.6 °F - 64.4 °F 78% 29.91 in 10.0 mi SSE 8.1 mph - N/A   Clear
6:35 AM 71.6 °F - 64.4 °F 78% 29.91 in 10.0 mi SSE 10.4 mph - N/A   Clear
6:55 AM 73.4 °F - 64.4 °F 73% 29.91 in 10.0 mi South 11.5 mph - N/A   Clear
7:15 AM 73.4 °F - 64.4 °F 73% 29.91 in 10.0 mi South 15.0 mph - N/A   Clear
7:35 AM 73.4 °F - 62.6 °F 69% 29.91 in 10.0 mi South 15.0 mph - N/A   Clear
7:55 AM 75.2 °F - 62.6 °F 65% 29.91 in 10.0 mi South 18.4 mph 24.2 mph N/A   Clear
8:15 AM 77.0 °F - 62.6 °F 61% 29.92 in 10.0 mi South 18.4 mph 24.2 mph N/A   Clear
8:35 AM 77.0 °F - 62.6 °F 61% 29.92 in 10.0 mi South 18.4 mph 23.0 mph N/A   Clear
8:55 AM 80.6 °F 81.5 °F 60.8 °F 51% 29.92 in 10.0 mi SSW 23.0 mph 28.8 mph N/A   Clear
9:15 AM 80.6 °F 81.5 °F 60.8 °F 51% 29.93 in 10.0 mi SSW 23.0 mph - N/A   Clear
9:35 AM 80.6 °F 81.5 °F 60.8 °F 51% 29.93 in 10.0 mi SSW 24.2 mph 28.8 mph N/A   Clear
9:55 AM 80.6 °F 81.8 °F 62.6 °F 54% 29.93 in 10.0 mi SSW 24.2 mph 27.6 mph N/A   Clear
10:15 AM 82.4 °F 83.4 °F 62.6 °F 51% 29.94 in 10.0 mi SSW 20.7 mph 27.6 mph N/A   Clear
10:35 AM 82.4 °F 83.4 °F 62.6 °F 51% 29.93 in 10.0 mi SSW 20.7 mph 26.5 mph N/A   Clear
10:55 AM 82.4 °F 83.4 °F 62.6 °F 51% 29.93 in 10.0 mi SSW 24.2 mph - N/A   Clear
11:15 AM 87.8 °F 88.5 °F 62.6 °F 43% 29.93 in 10.0 mi South 25.3 mph - N/A   Clear
11:35 AM 86.0 °F 86.6 °F 62.6 °F 45% 29.93 in 10.0 mi South 23.0 mph 27.6 mph N/A   Clear
11:55 AM 87.8 °F 89.4 °F 64.4 °F 46% 29.93 in 10.0 mi SSW 24.2 mph 29.9 mph N/A   Clear
12:15 PM 87.8 °F 88.5 °F 62.6 °F 43% 29.93 in 10.0 mi South 24.2 mph 28.8 mph N/A   Clear
12:35 PM 87.8 °F 88.5 °F 62.6 °F 43% 29.93 in 10.0 mi South 20.7 mph 29.9 mph N/A   Clear
12:55 PM 89.6 °F 89.5 °F 60.8 °F 38% 29.92 in 10.0 mi South 21.9 mph 31.1 mph N/A   Clear
1:15 PM 91.4 °F 91.4 °F 60.8 °F 36% 29.91 in 10.0 mi SSW 28.8 mph 34.5 mph N/A   Clear
1:35 PM 89.6 °F 88.9 °F 59.0 °F 36% 29.91 in 10.0 mi South 23.0 mph 32.2 mph N/A   Clear
1:55 PM 93.2 °F 92.6 °F 59.0 °F 32% 29.89 in 10.0 mi South 21.9 mph 29.9 mph N/A   Clear
2:15 PM 91.4 °F 90.7 °F 59.0 °F 34% 29.89 in 10.0 mi South 20.7 mph 27.6 mph N/A   Clear
2:35 PM 89.6 °F 88.9 °F 59.0 °F 36% 29.89 in 10.0 mi South 19.6 mph 27.6 mph N/A   Clear
2:55 PM 91.4 °F 91.4 °F 60.8 °F 36% 29.89 in 10.0 mi South 24.2 mph 27.6 mph N/A   Clear
3:15 PM 93.2 °F 93.3 °F 60.8 °F 34% 29.88 in 10.0 mi South 24.2 mph 40.3 mph N/A   Clear
3:35 PM 95.0 °F 94.4 °F 59.0 °F 30% 29.88 in 10.0 mi South 24.2 mph 31.1 mph N/A   Clear
3:55 PM 95.0 °F 93.7 °F 57.2 °F 28% 29.88 in 10.0 mi SSW 24.2 mph 33.4 mph N/A   Clear
4:15 PM 95.0 °F 93.0 °F 55.4 °F 26% 29.88 in 10.0 mi South 24.2 mph 35.7 mph N/A   Clear
4:35 PM 93.2 °F 91.3 °F 55.4 °F 28% 29.88 in 10.0 mi South 24.2 mph 34.5 mph N/A   Clear
4:55 PM 93.2 °F 92.6 °F 59.0 °F 32% 29.88 in 10.0 mi SSW 29.9 mph 35.7 mph N/A   Clear
5:15 PM 89.6 °F 88.9 °F 59.0 °F 36% 29.88 in 10.0 mi South 19.6 mph 34.5 mph N/A   Clear
5:35 PM 89.6 °F 88.1 °F 57.2 °F 33% 29.88 in 10.0 mi South 29.9 mph 39.1 mph N/A   Clear
5:55 PM 91.4 °F 90.7 °F 59.0 °F 34% 29.87 in 10.0 mi South 26.5 mph 39.1 mph N/A   Clear
6:15 PM 91.4 °F 90.7 °F 59.0 °F 34% 29.87 in 10.0 mi South 31.1 mph 36.8 mph N/A   Clear
6:35 PM 91.4 °F 90.7 °F 59.0 °F 34% 29.86 in 10.0 mi South 26.5 mph 35.7 mph N/A   Clear
6:55 PM 89.6 °F 88.9 °F 59.0 °F 36% 29.86 in 10.0 mi South 24.2 mph 32.2 mph N/A   Clear
7:15 PM 87.8 °F 87.1 °F 59.0 °F 38% 29.86 in 10.0 mi South 28.8 mph 35.7 mph N/A   Clear
7:35 PM 89.6 °F 88.9 °F 59.0 °F 36% 29.86 in 10.0 mi South 25.3 mph 33.4 mph N/A   Clear
7:55 PM 87.8 °F 87.1 °F 59.0 °F 38% 29.86 in 10.0 mi South 20.7 mph 35.7 mph N/A   Clear
8:15 PM 87.8 °F 87.6 °F 60.8 °F 40% 29.87 in 10.0 mi South 19.6 mph 31.1 mph N/A   Clear
8:35 PM 87.8 °F 87.6 °F 60.8 °F 40% 29.87 in 10.0 mi South 23.0 mph 28.8 mph N/A   Clear
8:55 PM 86.0 °F 86.6 °F 62.6 °F 45% 29.87 in 10.0 mi South 17.3 mph 25.3 mph N/A   Clear
9:15 PM 84.2 °F 85.6 °F 64.4 °F 51% 29.88 in 10.0 mi South 18.4 mph - N/A   Clear
9:35 PM 82.4 °F 83.9 °F 64.4 °F 54% 29.88 in 10.0 mi SSE 20.7 mph 29.9 mph N/A   Clear
9:55 PM 82.4 °F 84.6 °F 66.2 °F 58% 29.89 in 10.0 mi South 19.6 mph 25.3 mph N/A   Clear
10:15 PM 82.4 °F 84.6 °F 66.2 °F 58% 29.90 in 10.0 mi South 18.4 mph 28.8 mph N/A   Clear
10:35 PM 80.6 °F 82.7 °F 66.2 °F 61% 29.91 in 10.0 mi South 18.4 mph 25.3 mph N/A   Clear
10:55 PM 80.6 °F 82.3 °F 64.4 °F 58% 29.92 in 10.0 mi South 18.4 mph 25.3 mph N/A   Clear
11:15 PM 80.6 °F 82.3 °F 64.4 °F 58% 29.91 in 10.0 mi South 20.7 mph 27.6 mph N/A   Clear
11:35 PM 80.6 °F 82.3 °F 64.4 °F 58% 29.91 in 10.0 mi South 18.4 mph 25.3 mph N/A   Clear
11:55 PM 78.8 °F - 62.6 °F 57% 29.91 in 10.0 mi South 19.6 mph 27.6 mph N/A   Clear